Regional Weather Roundup
Issued by NWS Portland, ME

Current Version | Previous Version | Text Only | Print | Product List | Glossary Off
Versions: 1 2 3 4 5 6 7 8 9 10 11 12 13 14 15 16 17 18 19 20 21 22 23 24 25 26 27 28 29 30 31 32 33 34 35 36 37 38 39 40 41 42 43 44 45 46 47 48 49 50

000
ASUS41 KGYX 300305
RWRGYX
WEATHER ROUNDUP FOR MAINE AND NEW HAMPSHIRE
NATIONAL WEATHER SERVICE GRAY ME
1100 PM EDT SUN MAY 29 2016

MEZ002-005-006-010-012-015-018-020-021-024-026-027-029-300400-
MAINE

CITY           SKY/WX    TMP DP  RH WIND       PRES   REMARKS
PORTLAND       FOG       51  50  96 CALM      30.18F VSB 1
SANFORD        CLOUDY    50  46  87 CALM      30.17F
BAR HARBOR     CLOUDY    49  46  90 SE5       30.19F
WISCASSET      CLOUDY    50  49  96 E3        30.18F FOG
ROCKLAND       LGT RAIN  49  49 100 SE6       30.19F FOG
FRYEBURG       CLOUDY    51  50  96 E7        30.16F
LEWISTONAUBURN CLOUDY   N/A N/A N/A S5        30.16F
AUGUSTA        CLOUDY    50  49  96 SE7       30.16F FOG
WATERVILLE     CLOUDY    51  49  92 VRB3      30.14F FOG
BANGOR         CLOUDY    54  44  69 SE10      30.18F
GREENVILLE       N/A     49  46  90 VRB6      30.10F
MILLINOCKET    CLOUDY    50  46  86 VRB5      30.17F
HOULTON        CLOUDY    51  45  79 S7        30.13S
PRESQUE ISLE   CLOUDY    53  48  83 S10       30.11F
FRENCHVILLE    LGT RAIN  51  47  86 SE9       30.07F
CARIBOU        MOCLDY    52  47  83 S14       30.08F
$$

NHZ002-005-008-009-011-012-014-300400-
NEW HAMPSHIRE

CITY           SKY/WX    TMP DP  RH WIND       PRES   REMARKS
PORTSMOUTH     CLOUDY    51  50  95 E1        30.15F FOG
ROCHESTER      CLOUDY    51  49  92 CALM      30.15F FOG
NASHUA         CLOUDY    54  52  93 E3        30.16F
MANCHESTER     CLOUDY    53  50  89 CALM      30.15F FOG
CONCORD        CLOUDY    53  50  89 CALM      30.16F
LACONIA        CLOUDY    55  52  89 CALM      30.16F
PLYMOUTH       CLOUDY    57  54  87 E5        30.13F
BERLIN         CLOUDY    61 N/A N/A MISG      30.10S
WHITEFIELD     CLOUDY    62  59  90 CALM      30.09F FOG
JAFFREY        CLOUDY    53 N/A N/A VRB3      30.14F FOG
KEENE          CLOUDY    59  54  82 NE3       30.13F
LEBANON        CLOUDY    62  58  86 NE3       30.09F
MT WASHINGTON  LGT RAIN  54  54 100 SW33        N/A  VSB 0
$$

VTZ005-007-008-300400-
VERMONT

CITY           SKY/WX    TMP DP  RH WIND       PRES   REMARKS
ST JOHNSBURY     N/A     63  58  83 MISG      30.06F
MONTPELIER     MOCLDY    62  59  90 S5        30.09F
BURLINGTON     LGT RAIN  71  65  81 E6        29.98F
$$

MAZ007-012-024-CTZ003-RIZ002-NYZ038-NYZ072-300400-
SOUTHERN NEW ENGLAND AND NY

CITY           SKY/WX    TMP DP  RH WIND       PRES   REMARKS
BOSTON         CLOUDY    53  52  96 E6        30.16F FOG
WORCESTER      CLOUDY    53  52  96 NE5       30.14F FOG
NANTUCKET      CLOUDY    60  58  92 E6        30.14F
PROVIDENCE     DRIZZLE   58  55  90 NE6       30.14F FOG
HARTFORD       CLOUDY    72  66  81 S12       30.08S
ALBANY         CLOUDY    70  66  87 W3        30.03F
NEW YORK CITY  LGT RAIN  71  69  93 S7        30.06S
$$

ANZ081-ANZ082-ANZ150-NHZ014-MEZ023>029-300400-
COASTAL MARINE OBSERVATIONS

STATION/POSITION TIME  TEMP    WIND        PRES    WAVE
                       AIR SEA DIR/SP/G            HT/PER
                 (UTC) (F)     (DEG/KT/KT) (MB)    (FT/S)
MOUNT DESERT ROC 0300   48     100/ 12/ 13 1022.0F
MATINICUS ROCK   0200   49     110/ 14/ 16 1021.5F
ISLE OF SHOALS   0200   51      60/  4/  5 1021.8S
JEFFREYS LEDGE   0208      54                N/A     3/ 6
CASHES LEDGE BUO 0250   50 50  130/  6/  8 1021.0F   5/ 6
GEORGES BANK BUO 0150   57 53              1022.3    3/ 5
$$

.............KEY..............
   WCI - WIND CHILL
   TC  - TEMPERATURE IN CELSIUS
   VSB - VISIBILITY IN MILES
   HX  - HEAT INDEX
   FAIR- INDICATES FEW OR NO CLOUDS BELOW 12,000 FT, WITH NO
         SIGNIFICANT WEATHER AND/OR OBSTRUCTIONS TO VISIBILITY.






USA.gov is the U.S. government's official web portal to all federal, state and local government web resources and services.